Zurück zum Katalog

STARLINK-30767

AktivKommunikationVLEO
NORAD 58126·PAYLOAD·🇺🇸 United States

Gestartet Oct 22, 2023 von Cape Canaveral Space Force Station

Loading…

Nächste Überflüge (nächste 24 Stunden)

TLE

AktuellSource: CelesTrak SupGP

Epoche: Sep 14, 2026, 21:04 UTC

1 58126C 23162J   26257.87826389 -.00007711  00000+0 -27938-3 0  2575
2 58126  43.0005 140.8468 0001393 267.5435 275.5048 15.27572478    15

Verfolge STARLINK-30767 in Echtzeit mit AllMySat

Download on the App Store